ICE665 BIKF-KPDX

Flight info

Callsign ICE665
Flight time 7h 39m
Altitude 32000
Route SORIR3A SORIR DCT SUKED DCT 66N030W 68N040W 69N050W/M079F340 69N060W DCT BOPUT/N0448F340 DCT 6830N07000W 6730N08000W 6530N09000W 6230N10000W 58N110W/N0450F360 55N115W DCT YZU DCT LONRO DCT YDC J503 SEA HELNS6
Aircraft A21N/M-SDE2E3FGHIRWXY/LB1

Departure

Time 2026-05-04 13:30
Airport Keflavik International Airport (BIKF)

Arrival

Time 2026-05-04 21:10
Airport Portland International Airport (KPDX)
Time Latitude Longitude Altitude Speed Heading
2026-05-04 12:20 63.99380 -22.62193 146 ft 0 kts 238°
2026-05-04 13:14 63.99386 -22.62168 145 ft 4 kts 238°
2026-05-04 13:14 63.99401 -22.62116 148 ft 4 kts 238°
2026-05-04 13:14 63.99413 -22.62072 148 ft 4 kts 225°
2026-05-04 13:14 63.99433 -22.62052 148 ft 4 kts 168°
2026-05-04 13:15 63.99453 -22.62071 146 ft 1 kts 150°
2026-05-04 13:15 63.99457 -22.62076 147 ft 0 kts 150°
2026-05-04 13:20 63.99454 -22.62073 146 ft 2 kts 150°
2026-05-04 13:20 63.99429 -22.62039 148 ft 7 kts 150°
2026-05-04 13:20 63.99372 -22.61989 149 ft 11 kts 175°
2026-05-04 13:20 63.99282 -22.61988 148 ft 14 kts 180°
2026-05-04 13:21 63.99184 -22.61974 148 ft 15 kts 144°
2026-05-04 13:21 63.99173 -22.61740 152 ft 16 kts 89°
2026-05-04 13:21 63.99173 -22.61480 158 ft 17 kts 90°
2026-05-04 13:21 63.99173 -22.61205 164 ft 18 kts 95°
2026-05-04 13:22 63.99071 -22.61128 168 ft 19 kts 187°
2026-05-04 13:22 63.98939 -22.61121 168 ft 19 kts 180°
2026-05-04 13:22 63.98841 -22.60965 173 ft 21 kts 139°
2026-05-04 13:22 63.98706 -22.60939 172 ft 20 kts 179°
2026-05-04 13:23 63.98562 -22.60939 174 ft 21 kts 180°
2026-05-04 13:23 63.98413 -22.60940 171 ft 22 kts 180°
2026-05-04 13:23 63.98261 -22.60942 170 ft 22 kts 180°
2026-05-04 13:23 63.98105 -22.60943 172 ft 23 kts 180°
2026-05-04 13:24 63.97943 -22.60941 174 ft 24 kts 180°
2026-05-04 13:24 63.97777 -22.60941 175 ft 24 kts 180°
2026-05-04 13:24 63.97606 -22.60941 173 ft 25 kts 180°
2026-05-04 13:25 63.97258 -22.60940 165 ft 26 kts 180°
2026-05-04 13:25 63.97078 -22.60942 159 ft 26 kts 180°
2026-05-04 13:25 63.96907 -22.60942 152 ft 22 kts 179°
2026-05-04 13:25 63.96763 -22.60942 147 ft 19 kts 180°
2026-05-04 13:26 63.96684 -22.60941 144 ft 9 kts 180°
2026-05-04 13:26 63.96635 -22.60941 142 ft 0 kts 180°
2026-05-04 13:27 63.96630 -22.60941 142 ft 2 kts 180°
2026-05-04 13:28 63.96571 -22.60941 141 ft 12 kts 180°
2026-05-04 13:28 63.96475 -22.60923 141 ft 17 kts 141°
2026-05-04 13:28 63.96460 -22.60639 148 ft 20 kts 91°
2026-05-04 13:28 63.96510 -22.60541 151 ft 3 kts 359°
2026-05-04 13:29 63.96524 -22.60541 152 ft 0 kts
2026-05-04 13:29 63.96599 -22.60541 154 ft 38 kts
2026-05-04 13:30 63.97079 -22.60544 167 ft 100 kts
2026-05-04 13:30 63.97980 -22.60536 178 ft 158 kts
2026-05-04 13:30 63.99094 -22.60549 866 ft 159 kts 359°
2026-05-04 13:30 64.00213 -22.60624 1730 ft 163 kts
2026-05-04 13:31 64.01410 -22.60627 2237 ft 180 kts
2026-05-04 13:31 64.02714 -22.60605 2702 ft 195 kts
2026-05-04 13:31 64.04128 -22.60703 3115 ft 215 kts 353°
2026-05-04 13:31 64.05613 -22.61867 3502 ft 238 kts 329°
2026-05-04 13:32 64.06808 -22.64571 4193 ft 249 kts 303°
2026-05-04 13:32 64.07453 -22.68254 5157 ft 251 kts 289°
2026-05-04 13:32 64.07900 -22.72110 6087 ft 250 kts 288°
2026-05-04 13:32 64.08343 -22.75935 6977 ft 249 kts 288°
2026-05-04 13:33 64.08796 -22.79745 7787 ft 249 kts 288°
2026-05-04 13:33 64.09260 -22.83582 8573 ft 250 kts 289°
2026-05-04 13:33 64.09728 -22.87414 9344 ft 251 kts 289°
2026-05-04 13:33 64.10197 -22.91226 10107 ft 253 kts 289°
2026-05-04 13:34 64.10683 -22.95161 10578 ft 264 kts 289°
2026-05-04 13:34 64.11204 -22.99348 10836 ft 282 kts 288°
2026-05-04 13:34 64.11755 -23.03801 11081 ft 300 kts 288°
2026-05-04 13:34 64.12344 -23.08534 11296 ft 318 kts 288°
2026-05-04 13:35 64.12954 -23.13485 11724 ft 327 kts 288°
2026-05-04 13:35 64.14187 -23.23571 13114 ft 330 kts 288°
2026-05-04 13:35 64.14807 -23.28640 13822 ft 330 kts 288°
2026-05-04 13:36 64.15425 -23.33717 14448 ft 331 kts 288°
2026-05-04 13:36 64.16042 -23.38811 15019 ft 332 kts 288°
2026-05-04 13:36 64.16661 -23.43928 15589 ft 334 kts 288°
2026-05-04 13:36 64.17284 -23.49084 16170 ft 336 kts 288°
2026-05-04 13:37 64.17912 -23.54246 16762 ft 337 kts 289°
2026-05-04 13:37 64.18757 -23.59276 17286 ft 339 kts 294°
2026-05-04 13:37 64.19748 -23.64215 17844 ft 342 kts 295°
2026-05-04 13:37 64.20415 -23.67502 18221 ft 343 kts 295°
2026-05-04 13:38 64.21766 -23.74184 18906 ft 347 kts 295°
2026-05-04 13:38 64.22779 -23.79227 19376 ft 349 kts 295°
2026-05-04 13:38 64.23792 -23.84314 19854 ft 351 kts 295°
2026-05-04 13:38 64.24798 -23.89373 20313 ft 353 kts 295°
2026-05-04 13:39 64.25824 -23.94547 20773 ft 356 kts 294°
2026-05-04 13:39 64.26849 -23.99744 21237 ft 358 kts 294°
2026-05-04 13:39 64.27883 -24.04980 21730 ft 360 kts 294°
2026-05-04 13:39 64.28916 -24.10246 22210 ft 361 kts 294°
2026-05-04 13:40 64.29949 -24.15531 22645 ft 363 kts 294°
2026-05-04 13:40 64.30986 -24.20843 23078 ft 365 kts 294°
2026-05-04 13:40 64.32030 -24.26195 23494 ft 367 kts 294°
2026-05-04 13:40 64.33082 -24.31593 23890 ft 369 kts 294°
2026-05-04 13:41 64.34134 -24.37004 24228 ft 371 kts 294°
2026-05-04 13:41 64.35192 -24.42463 24570 ft 373 kts 294°
2026-05-04 13:41 64.36239 -24.47892 24907 ft 375 kts 294°
2026-05-04 13:42 64.38370 -24.58975 25592 ft 379 kts 294°
2026-05-04 13:42 64.39439 -24.64556 25923 ft 381 kts 294°
2026-05-04 13:42 64.40651 -24.70026 26205 ft 384 kts 300°
2026-05-04 13:42 64.42181 -24.75137 26443 ft 388 kts 304°
2026-05-04 13:43 64.43796 -24.80186 26732 ft 391 kts 304°
2026-05-04 13:43 64.45420 -24.85254 27040 ft 392 kts 304°
2026-05-04 13:43 64.47040 -24.90335 27495 ft 391 kts 304°
2026-05-04 13:43 64.48629 -24.95338 27956 ft 389 kts 304°
2026-05-04 13:44 64.50220 -25.00375 28401 ft 386 kts 304°
2026-05-04 13:44 64.51804 -25.05405 28809 ft 385 kts 304°
2026-05-04 13:44 64.53382 -25.10421 29200 ft 384 kts 304°
2026-05-04 13:44 64.54954 -25.15435 29579 ft 383 kts 303°
2026-05-04 13:45 64.56518 -25.20442 29946 ft 382 kts 303°
2026-05-04 13:45 64.58083 -25.25451 30304 ft 382 kts 303°
2026-05-04 13:45 64.59642 -25.30452 30592 ft 381 kts 303°
2026-05-04 13:45 64.61193 -25.35440 30846 ft 381 kts 303°
2026-05-04 13:46 64.62751 -25.40450 31095 ft 381 kts 304°
2026-05-04 13:46 64.64310 -25.45446 31329 ft 381 kts 303°
2026-05-04 13:46 64.65341 -25.48764 31490 ft 381 kts 303°
2026-05-04 13:46 64.66890 -25.53780 31719 ft 381 kts 303°
2026-05-04 13:47 64.68439 -25.58814 31990 ft 381 kts 303°
2026-05-04 13:47 64.69988 -25.63848 32239 ft 380 kts 303°
2026-05-04 13:47 64.73071 -25.73906 32332 ft 380 kts 303°
2026-05-04 13:48 64.76149 -25.84000 32304 ft 380 kts 303°
2026-05-04 13:48 64.79211 -25.94100 32300 ft 380 kts 303°
2026-05-04 13:49 64.82270 -26.04229 32302 ft 380 kts 303°
2026-05-04 13:49 64.85297 -26.14300 32301 ft 380 kts 303°
2026-05-04 13:50 64.88342 -26.24466 32301 ft 380 kts 303°
2026-05-04 13:50 64.91363 -26.34644 32331 ft 376 kts 302°
2026-05-04 13:51 64.94352 -26.44760 32307 ft 376 kts 302°
2026-05-04 13:51 64.97341 -26.54903 32305 ft 376 kts 302°
2026-05-04 13:52 65.01963 -26.69918 32305 ft 377 kts 304°
2026-05-04 13:53 65.05131 -26.79809 32308 ft 377 kts 304°
2026-05-04 13:53 65.08285 -26.89736 32307 ft 377 kts 304°
2026-05-04 13:54 65.12996 -27.04672 32332 ft 375 kts 304°
2026-05-04 13:55 65.17659 -27.19528 32309 ft 375 kts 304°
2026-05-04 13:55 65.22322 -27.34499 32308 ft 375 kts 304°
2026-05-04 13:56 65.25427 -27.44519 32307 ft 375 kts 303°
2026-05-04 13:57 65.30063 -27.59580 32312 ft 375 kts 303°
2026-05-04 13:58 65.36248 -27.79853 32297 ft 379 kts 303°
2026-05-04 13:58 65.40901 -27.95203 32306 ft 379 kts 303°
2026-05-04 13:59 65.43978 -28.05413 32308 ft 379 kts 303°
2026-05-04 14:00 65.48610 -28.20849 32309 ft 379 kts 303°
2026-05-04 14:00 65.53218 -28.36344 32307 ft 379 kts 303°
2026-05-04 14:01 65.56271 -28.46673 32318 ft 377 kts 303°
2026-05-04 14:02 65.60833 -28.62188 32306 ft 377 kts 303°
2026-05-04 14:02 65.63858 -28.72547 32305 ft 377 kts 302°
2026-05-04 14:03 65.66882 -28.82933 32308 ft 377 kts 302°
2026-05-04 14:03 65.69894 -28.93334 32307 ft 377 kts 302°
2026-05-04 14:04 65.74382 -29.08902 32301 ft 377 kts 302°
2026-05-04 14:04 65.77372 -29.19350 32328 ft 374 kts 302°
2026-05-04 14:05 65.81820 -29.34981 32250 ft 376 kts 302°
2026-05-04 14:06 65.84807 -29.45540 32294 ft 379 kts 302°
2026-05-04 14:06 65.87793 -29.56146 32302 ft 379 kts 302°
2026-05-04 14:07 65.90775 -29.66784 32306 ft 379 kts 302°
2026-05-04 14:07 65.93748 -29.77445 32307 ft 379 kts 302°
2026-05-04 14:08 65.96713 -29.88125 32349 ft 379 kts 302°
2026-05-04 14:08 65.99636 -29.98712 32321 ft 376 kts 301°
2026-05-04 14:09 66.03763 -30.15103 32316 ft 376 kts 299°
2026-05-04 14:10 66.07855 -30.31573 32322 ft 375 kts 299°
2026-05-04 14:10 66.10567 -30.42567 32323 ft 375 kts 299°
2026-05-04 14:11 66.13273 -30.53601 32332 ft 375 kts 299°
2026-05-04 14:11 66.17311 -30.70173 32375 ft 374 kts 298°
2026-05-04 14:12 66.19970 -30.81149 32345 ft 372 kts 298°
2026-05-04 14:13 66.23921 -30.97583 32339 ft 372 kts 298°
2026-05-04 14:13 66.26576 -31.08672 32305 ft 375 kts 298°
2026-05-04 14:14 66.29231 -31.19841 32347 ft 376 kts 298°
2026-05-04 14:14 66.33207 -31.36664 32353 ft 376 kts 298°
2026-05-04 14:15 66.38473 -31.59107 32370 ft 373 kts 298°
2026-05-04 14:16 66.42368 -31.75881 32353 ft 373 kts 298°
2026-05-04 14:17 66.46246 -31.92749 32365 ft 373 kts 297°
2026-05-04 14:18 66.50124 -32.09697 32372 ft 373 kts 297°
2026-05-04 14:19 66.55237 -32.32259 32416 ft 373 kts 297°
2026-05-04 14:19 66.57785 -32.43612 32404 ft 373 kts 297°
2026-05-04 14:20 66.60331 -32.54983 32414 ft 373 kts 297°
2026-05-04 14:20 66.62865 -32.66385 32415 ft 373 kts 297°
2026-05-04 14:21 66.66654 -32.83539 32424 ft 373 kts 296°
2026-05-04 14:21 66.69168 -32.94989 32422 ft 373 kts 296°
2026-05-04 14:22 66.71669 -33.06467 32426 ft 373 kts 296°
2026-05-04 14:22 66.74167 -33.17966 32510 ft 372 kts 296°
2026-05-04 14:23 66.77871 -33.35110 32448 ft 370 kts 296°
2026-05-04 14:24 66.80305 -33.46479 32446 ft 370 kts 296°
2026-05-04 14:24 66.82755 -33.57970 32459 ft 370 kts 296°
2026-05-04 14:25 66.85190 -33.69467 32461 ft 370 kts 296°
2026-05-04 14:25 66.88831 -33.86756 32474 ft 370 kts 296°
2026-05-04 14:26 66.91246 -33.98304 32466 ft 369 kts 296°
2026-05-04 14:26 66.93636 -34.09799 32498 ft 365 kts 295°
2026-05-04 14:27 66.96004 -34.21251 32494 ft 365 kts 295°
2026-05-04 14:27 66.98353 -34.32673 32492 ft 365 kts 295°
2026-05-04 14:28 67.00703 -34.44166 32495 ft 365 kts 295°
2026-05-04 14:28 67.03060 -34.55749 32477 ft 368 kts 295°
2026-05-04 14:29 67.07762 -34.79093 32501 ft 368 kts 295°
2026-05-04 14:30 67.10104 -34.90784 32538 ft 367 kts 295°
2026-05-04 14:31 67.13581 -35.08254 32497 ft 366 kts 295°
2026-05-04 14:32 67.18170 -35.31568 32425 ft 366 kts 294°
2026-05-04 14:32 67.20459 -35.43302 32426 ft 366 kts 294°
2026-05-04 14:33 67.22737 -35.55053 32426 ft 366 kts 294°
2026-05-04 14:33 67.25002 -35.66829 32365 ft 366 kts 294°
2026-05-04 14:34 67.27264 -35.78609 32364 ft 366 kts 294°
2026-05-04 14:34 67.29517 -35.90419 32337 ft 366 kts 294°
2026-05-04 14:35 67.31747 -36.02176 32306 ft 366 kts 294°
2026-05-04 14:35 67.33986 -36.14033 32300 ft 366 kts 294°
2026-05-04 14:36 67.36214 -36.25893 32296 ft 366 kts 294°
2026-05-04 14:36 67.38069 -36.35848 32265 ft 369 kts 294°
2026-05-04 14:37 67.40286 -36.47885 32294 ft 370 kts 294°
2026-05-04 14:37 67.42516 -36.59952 32295 ft 370 kts 294°
2026-05-04 14:38 67.44732 -36.72039 32335 ft 368 kts 293°
2026-05-04 14:38 67.46934 -36.84107 32320 ft 368 kts 293°
2026-05-04 14:39 67.49122 -36.96174 32312 ft 368 kts 293°
2026-05-04 14:39 67.51293 -37.08289 32336 ft 368 kts 293°
2026-05-04 14:40 67.54536 -37.26383 32339 ft 368 kts 293°
2026-05-04 14:40 67.56696 -37.38543 32363 ft 368 kts 292°
2026-05-04 14:41 67.58837 -37.50721 32377 ft 368 kts 292°
2026-05-04 14:42 67.63120 -37.75223 32385 ft 372 kts 292°
2026-05-04 14:42 67.65257 -37.87593 32400 ft 371 kts 292°
2026-05-04 14:43 67.67384 -37.99979 32402 ft 371 kts 292°
2026-05-04 14:43 67.69491 -38.12284 32403 ft 371 kts 292°
2026-05-04 14:44 67.71599 -38.24704 32403 ft 372 kts 291°
2026-05-04 14:44 67.73704 -38.37172 32428 ft 372 kts 291°
2026-05-04 14:45 67.75816 -38.49757 32435 ft 372 kts 291°
2026-05-04 14:45 67.77895 -38.62223 32452 ft 374 kts 291°
2026-05-04 14:46 67.79990 -38.74844 32446 ft 375 kts 291°
2026-05-04 14:46 67.82070 -38.87486 32446 ft 374 kts 291°
2026-05-04 14:47 67.84138 -39.00139 32451 ft 374 kts 291°
2026-05-04 14:47 67.86197 -39.12798 32450 ft 374 kts 291°
2026-05-04 14:48 67.88245 -39.25507 32447 ft 374 kts 291°
2026-05-04 14:48 67.90287 -39.38224 32449 ft 374 kts 291°
2026-05-04 14:49 67.92314 -39.50955 32474 ft 374 kts 291°
2026-05-04 14:49 67.94345 -39.63795 32455 ft 377 kts 291°
2026-05-04 14:50 67.96356 -39.76604 32448 ft 377 kts 291°
2026-05-04 14:50 67.98371 -39.89531 32446 ft 377 kts 291°
2026-05-04 14:51 68.00335 -40.02494 32449 ft 377 kts 289°
2026-05-04 14:51 68.02114 -40.15660 32391 ft 375 kts 288°
2026-05-04 14:52 68.03863 -40.28756 32429 ft 375 kts 288°
2026-05-04 14:52 68.05606 -40.41916 32436 ft 376 kts 288°
2026-05-04 14:53 68.07346 -40.55087 32441 ft 376 kts 288°
2026-05-04 14:53 68.09074 -40.68293 32429 ft 376 kts 288°
2026-05-04 14:54 68.10781 -40.81441 32426 ft 376 kts 288°
2026-05-04 14:54 68.12482 -40.94675 32417 ft 376 kts 288°
2026-05-04 14:55 68.14180 -41.07963 32414 ft 376 kts 288°
2026-05-04 14:55 68.15863 -41.21250 32410 ft 376 kts 288°
2026-05-04 14:56 68.17533 -41.34559 32406 ft 376 kts 287°
2026-05-04 14:56 68.19191 -41.47886 32435 ft 376 kts 287°
2026-05-04 14:57 68.20831 -41.61197 32407 ft 378 kts 288°
2026-05-04 14:57 68.22488 -41.74616 32404 ft 378 kts 288°
2026-05-04 14:58 68.24136 -41.88075 32403 ft 378 kts 287°
2026-05-04 14:58 68.25767 -42.01544 32341 ft 376 kts 287°
2026-05-04 14:59 68.27383 -42.15004 32386 ft 376 kts 287°
2026-05-04 15:00 68.29776 -42.35173 32394 ft 376 kts 287°
2026-05-04 15:00 68.31351 -42.48564 32455 ft 376 kts 287°
2026-05-04 15:01 68.33705 -42.68810 32403 ft 377 kts 287°
2026-05-04 15:01 68.35267 -42.82393 32401 ft 377 kts 287°
2026-05-04 15:02 68.36817 -42.95952 32405 ft 377 kts 287°
2026-05-04 15:02 68.38356 -43.09530 32405 ft 377 kts 286°
2026-05-04 15:03 68.39871 -43.23052 32406 ft 377 kts 286°
2026-05-04 15:03 68.41384 -43.36682 32412 ft 377 kts 286°
2026-05-04 15:04 68.42886 -43.50316 32402 ft 377 kts 286°
2026-05-04 15:04 68.44387 -43.64027 32408 ft 379 kts 286°
2026-05-04 15:05 68.45879 -43.77775 32409 ft 379 kts 286°
2026-05-04 15:05 68.47354 -43.91541 32411 ft 379 kts 286°
2026-05-04 15:06 68.48811 -44.05232 32406 ft 379 kts 286°
2026-05-04 15:07 68.50980 -44.25943 32412 ft 379 kts 285°
2026-05-04 15:07 68.52417 -44.39771 32410 ft 379 kts 285°
2026-05-04 15:08 68.53835 -44.53608 32409 ft 378 kts 285°
2026-05-04 15:08 68.55254 -44.67488 32426 ft 381 kts 285°
2026-05-04 15:09 68.56681 -44.81445 32421 ft 381 kts 285°
2026-05-04 15:09 68.58087 -44.95426 32419 ft 381 kts 285°
2026-05-04 15:10 68.60165 -45.16412 32423 ft 381 kts 285°
2026-05-04 15:11 68.62200 -45.37349 32423 ft 381 kts 285°
2026-05-04 15:11 68.63547 -45.51399 32428 ft 381 kts 285°
2026-05-04 15:12 68.64898 -45.65443 32430 ft 381 kts 285°
2026-05-04 15:12 68.66233 -45.79525 32339 ft 381 kts 284°
2026-05-04 15:13 68.67540 -45.93500 32407 ft 376 kts 284°
2026-05-04 15:13 68.68828 -46.07441 32431 ft 376 kts 284°
2026-05-04 15:14 68.70112 -46.21404 32438 ft 377 kts 284°
2026-05-04 15:14 68.71382 -46.35372 32424 ft 377 kts 284°
2026-05-04 15:15 68.72634 -46.49300 32421 ft 376 kts 284°
2026-05-04 15:15 68.73881 -46.63316 32421 ft 376 kts 283°
2026-05-04 15:16 68.75731 -46.84403 32433 ft 378 kts 283°
2026-05-04 15:17 68.77561 -47.05550 32432 ft 378 kts 283°
2026-05-04 15:17 68.79362 -47.26763 32448 ft 378 kts 283°
2026-05-04 15:18 68.80542 -47.40930 32443 ft 378 kts 283°
2026-05-04 15:19 68.82282 -47.62196 32462 ft 378 kts 283°
2026-05-04 15:19 68.84026 -47.83463 32441 ft 377 kts 282°
2026-05-04 15:20 68.85164 -47.97552 32461 ft 378 kts 282°
2026-05-04 15:20 68.86287 -48.11770 32470 ft 378 kts 282°
2026-05-04 15:21 68.87407 -48.25988 32458 ft 377 kts 282°
2026-05-04 15:22 68.89060 -48.47361 32449 ft 378 kts 282°
2026-05-04 15:22 68.90678 -48.68749 32443 ft 377 kts 282°
2026-05-04 15:23 68.91741 -48.83030 32451 ft 377 kts 282°
2026-05-04 15:23 68.92786 -48.97226 32423 ft 378 kts 281°
2026-05-04 15:24 68.94684 -49.23618 32401 ft 379 kts 281°
2026-05-04 15:25 68.95693 -49.37891 32391 ft 379 kts 281°
2026-05-04 15:26 68.97211 -49.59464 32393 ft 379 kts 281°
2026-05-04 15:26 68.98715 -49.81064 32317 ft 379 kts 281°
2026-05-04 15:27 69.00080 -50.02780 32374 ft 380 kts 276°
2026-05-04 15:28 69.00708 -50.24814 32369 ft 380 kts 275°
2026-05-04 15:29 69.01304 -50.46892 32373 ft 380 kts 275°
2026-05-04 15:30 69.02585 -50.98332 32419 ft 380 kts 275°
2026-05-04 15:31 69.03084 -51.20465 32415 ft 380 kts 274°
2026-05-04 15:32 69.03865 -51.57415 32307 ft 382 kts 274°
2026-05-04 15:33 69.04154 -51.72193 32523 ft 385 kts 274°
2026-05-04 15:34 69.04567 -51.94565 33261 ft 384 kts 273°
2026-05-04 15:34 69.04699 -52.02045 33481 ft 384 kts 273°
2026-05-04 15:34 69.04951 -52.16952 33912 ft 384 kts 273°
2026-05-04 15:35 69.05193 -52.31773 34316 ft 384 kts 273°
2026-05-04 15:35 69.05311 -52.39233 34407 ft 385 kts 273°
2026-05-04 15:36 69.05641 -52.61702 34391 ft 386 kts 272°
2026-05-04 15:36 69.05844 -52.76692 34391 ft 386 kts 272°
2026-05-04 15:37 69.06031 -52.91707 34390 ft 386 kts 272°
2026-05-04 15:37 69.06206 -53.06711 34397 ft 386 kts 272°
2026-05-04 15:38 69.06367 -53.21689 34398 ft 386 kts 272°
2026-05-04 15:38 69.06517 -53.36690 34373 ft 386 kts 272°
2026-05-04 15:39 69.06652 -53.51609 34396 ft 386 kts 271°
2026-05-04 15:40 69.06826 -53.74148 34403 ft 387 kts 271°
2026-05-04 15:40 69.06935 -53.89225 34404 ft 387 kts 271°
2026-05-04 15:41 69.07025 -54.04297 34399 ft 387 kts 271°
2026-05-04 15:41 69.07104 -54.19359 34407 ft 387 kts 271°
2026-05-04 15:42 69.07168 -54.34317 34411 ft 387 kts 271°
2026-05-04 15:42 69.07221 -54.49384 34409 ft 387 kts 271°
2026-05-04 15:43 69.07259 -54.64486 34409 ft 387 kts 270°
2026-05-04 15:43 69.07284 -54.79557 34410 ft 387 kts 270°
2026-05-04 15:44 69.07295 -54.94637 34425 ft 388 kts 270°
2026-05-04 15:44 69.07289 -55.09755 34375 ft 389 kts 270°
2026-05-04 15:45 69.07277 -55.24916 34407 ft 391 kts 270°
2026-05-04 15:45 69.07248 -55.40130 34415 ft 391 kts 270°
2026-05-04 15:46 69.07204 -55.55328 34412 ft 391 kts 269°
2026-05-04 15:46 69.07140 -55.70537 34422 ft 391 kts 269°
2026-05-04 15:47 69.07070 -55.85657 34423 ft 391 kts 269°
2026-05-04 15:47 69.06993 -56.00877 34423 ft 391 kts 269°
2026-05-04 15:48 69.06897 -56.16085 34437 ft 392 kts 269°
2026-05-04 15:48 69.06727 -56.38922 34431 ft 392 kts 269°
2026-05-04 15:49 69.06598 -56.54177 34431 ft 391 kts 269°
2026-05-04 15:49 69.06454 -56.69406 34436 ft 391 kts 269°
2026-05-04 15:50 69.06299 -56.84552 34408 ft 395 kts 268°
2026-05-04 15:50 69.06126 -56.99997 34436 ft 397 kts 268°
2026-05-04 15:51 69.05940 -57.15460 34447 ft 397 kts 268°
2026-05-04 15:51 69.05737 -57.30909 34449 ft 397 kts 268°
2026-05-04 15:52 69.05522 -57.46343 34447 ft 398 kts 268°
2026-05-04 15:52 69.05291 -57.61810 34456 ft 398 kts 268°
2026-05-04 15:53 69.05052 -57.77152 34454 ft 398 kts 267°
2026-05-04 15:53 69.04797 -57.92595 34455 ft 398 kts 267°
2026-05-04 15:54 69.04526 -58.08040 34458 ft 398 kts 267°
2026-05-04 15:54 69.04240 -58.23457 34458 ft 398 kts 267°
2026-05-04 15:55 69.03942 -58.38886 34454 ft 398 kts 267°
2026-05-04 15:55 69.03632 -58.54330 34434 ft 400 kts 266°
2026-05-04 15:56 69.03299 -58.69970 34463 ft 405 kts 266°
2026-05-04 15:56 69.02953 -58.85585 34468 ft 405 kts 266°
2026-05-04 15:57 69.02595 -59.01291 34465 ft 405 kts 266°
2026-05-04 15:57 69.02217 -59.16982 34482 ft 405 kts 265°
2026-05-04 15:58 69.01832 -59.32691 34478 ft 405 kts 265°
2026-05-04 15:58 69.01428 -59.48353 34477 ft 405 kts 265°
2026-05-04 15:59 69.01005 -59.64041 34478 ft 405 kts 265°
2026-05-04 15:59 69.00575 -59.79731 34480 ft 406 kts 265°
2026-05-04 16:00 69.00130 -59.95418 34486 ft 406 kts 265°
2026-05-04 16:00 68.99821 -60.11132 34497 ft 406 kts 267°
2026-05-04 16:01 68.99565 -60.26768 34486 ft 406 kts 266°
2026-05-04 16:01 68.99287 -60.42654 34486 ft 415 kts 266°
2026-05-04 16:02 68.98994 -60.58764 34496 ft 416 kts 266°
2026-05-04 16:03 68.98529 -60.82902 34493 ft 416 kts 265°
2026-05-04 16:03 68.98200 -60.98971 34519 ft 415 kts 266°
2026-05-04 16:04 68.97855 -61.14976 34515 ft 413 kts 265°
2026-05-04 16:04 68.97314 -61.38837 34509 ft 413 kts 265°
2026-05-04 16:05 68.96929 -61.54812 34512 ft 413 kts 265°
2026-05-04 16:06 68.96338 -61.78776 34509 ft 413 kts 265°
2026-05-04 16:07 68.95532 -62.10694 34522 ft 413 kts 265°
2026-05-04 16:08 68.94719 -62.42631 34528 ft 414 kts 265°
2026-05-04 16:09 68.93612 -62.82398 34531 ft 413 kts 265°
2026-05-04 16:10 68.92659 -63.14276 34531 ft 414 kts 264°
2026-05-04 16:11 68.91649 -63.46045 34533 ft 411 kts 264°
2026-05-04 16:12 68.90030 -63.93325 34542 ft 411 kts 264°
2026-05-04 16:13 68.88957 -64.22693 34551 ft 422 kts 263°
2026-05-04 16:14 68.87717 -64.55109 34555 ft 420 kts 263°
2026-05-04 16:16 68.86086 -64.95338 34553 ft 420 kts 263°
2026-05-04 16:17 68.84363 -65.35427 34565 ft 420 kts 262°
2026-05-04 16:18 68.82918 -65.67508 34559 ft 420 kts 262°
2026-05-04 16:19 68.81005 -66.07966 34562 ft 430 kts 262°
2026-05-04 16:20 68.78968 -66.48877 34552 ft 430 kts 261°
2026-05-04 16:22 68.76836 -66.89653 34560 ft 428 kts 261°
2026-05-04 16:23 68.74165 -67.38168 34552 ft 427 kts 261°
2026-05-04 16:25 68.71340 -67.86784 34542 ft 432 kts 259°
2026-05-04 16:26 68.67844 -68.43855 34496 ft 433 kts 259°
2026-05-04 16:28 68.65233 -68.84407 34476 ft 431 kts 258°
2026-05-04 16:29 68.61412 -69.41122 34422 ft 432 kts 258°
2026-05-04 16:30 68.59672 -69.65763 34422 ft 443 kts 257°
2026-05-04 16:31 68.58492 -69.82230 34397 ft 443 kts 257°
2026-05-04 16:32 68.54850 -70.31884 34377 ft 446 kts 257°
2026-05-04 16:33 68.52325 -70.65093 34348 ft 447 kts 256°
2026-05-04 16:34 68.50382 -70.89914 34348 ft 447 kts 255°
2026-05-04 16:35 68.46378 -71.39718 34330 ft 456 kts 256°
2026-05-04 16:36 68.44292 -71.65034 34321 ft 457 kts 255°
2026-05-04 16:37 68.42162 -71.90174 34334 ft 456 kts 255°
2026-05-04 16:38 68.39249 -72.23766 34308 ft 458 kts 254°
2026-05-04 16:39 68.35528 -72.65591 34293 ft 457 kts 254°
2026-05-04 16:40 68.32476 -72.98920 34307 ft 455 kts 254°
2026-05-04 16:41 68.28503 -73.41136 34290 ft 465 kts 253°
2026-05-04 16:43 68.24428 -73.83179 34281 ft 463 kts 253°
2026-05-04 16:43 68.21928 -74.08393 34267 ft 464 kts 253°
2026-05-04 16:45 68.16807 -74.58641 34283 ft 463 kts 253°
2026-05-04 16:46 68.12438 -75.00284 34268 ft 464 kts 252°
2026-05-04 16:47 68.08877 -75.33469 34271 ft 465 kts 252°
2026-05-04 16:48 68.05226 -75.66623 34262 ft 464 kts 251°
2026-05-04 16:49 68.01517 -75.99618 34268 ft 463 kts 251°
2026-05-04 16:50 67.97744 -76.32521 34251 ft 463 kts 251°
2026-05-04 16:51 67.94868 -76.57108 34248 ft 467 kts 251°
2026-05-04 16:52 67.90971 -76.89927 34228 ft 464 kts 251°
2026-05-04 16:53 67.88010 -77.14405 34232 ft 464 kts 250°
2026-05-04 16:54 67.84013 -77.46906 34217 ft 464 kts 250°
2026-05-04 16:55 67.77893 -77.95400 34220 ft 462 kts 249°
2026-05-04 16:56 67.72674 -78.35667 34204 ft 467 kts 249°
2026-05-04 16:57 67.69476 -78.59938 34202 ft 467 kts 249°
2026-05-04 16:58 67.65163 -78.92130 34207 ft 465 kts 249°
2026-05-04 17:00 67.58613 -79.39955 34197 ft 465 kts 248°
2026-05-04 17:01 67.53392 -79.77119 34203 ft 465 kts 248°
2026-05-04 17:02 67.48875 -80.08663 34198 ft 465 kts 248°
2026-05-04 17:03 67.45437 -80.32338 34196 ft 465 kts 247°
2026-05-04 17:03 67.41962 -80.55950 34195 ft 465 kts 247°
2026-05-04 17:04 67.37287 -80.87267 34190 ft 463 kts 247°
2026-05-04 17:05 67.32556 -81.18391 34188 ft 463 kts 246°
2026-05-04 17:06 67.28979 -81.41600 34189 ft 468 kts 246°
2026-05-04 17:07 67.25732 -81.62427 34194 ft 469 kts 246°
2026-05-04 17:07 67.22863 -81.80650 34187 ft 469 kts 246°
2026-05-04 17:08 67.19152 -82.03932 34182 ft 467 kts 245°
2026-05-04 17:09 67.16663 -82.19404 34176 ft 468 kts 245°
2026-05-04 17:09 67.14171 -82.34762 34177 ft 468 kts 245°
2026-05-04 17:10 67.07837 -82.73266 34168 ft 467 kts 245°
2026-05-04 17:11 67.05285 -82.88591 34174 ft 468 kts 245°
2026-05-04 17:12 67.01376 -83.11795 34157 ft 476 kts 245°
2026-05-04 17:13 66.94767 -83.50410 34133 ft 473 kts 244°
2026-05-04 17:14 66.89425 -83.81103 34113 ft 473 kts 243°
2026-05-04 17:15 66.85384 -84.04002 34119 ft 472 kts 243°
2026-05-04 17:16 66.79960 -84.34345 34128 ft 473 kts 243°
2026-05-04 17:17 66.74463 -84.64595 34111 ft 471 kts 243°
2026-05-04 17:18 66.68911 -84.94691 34123 ft 473 kts 243°
2026-05-04 17:19 66.63307 -85.24657 34106 ft 473 kts 243°
2026-05-04 17:20 66.57656 -85.54456 34101 ft 472 kts 242°
2026-05-04 17:20 66.53389 -85.76647 34094 ft 469 kts 242°
2026-05-04 17:21 66.47645 -86.06149 34092 ft 473 kts 242°
2026-05-04 17:22 66.44742 -86.20921 34102 ft 473 kts 242°
2026-05-04 17:23 66.38889 -86.50341 34121 ft 473 kts 241°
2026-05-04 17:24 66.34496 -86.72184 34118 ft 471 kts 241°
2026-05-04 17:25 66.28542 -87.01395 34106 ft 471 kts 241°
2026-05-04 17:26 66.22583 -87.30246 34122 ft 472 kts 240°
2026-05-04 17:27 66.14987 -87.66427 34121 ft 475 kts 240°
2026-05-04 17:28 66.08857 -87.95207 34095 ft 474 kts 240°
2026-05-04 17:29 65.99571 -88.38081 34093 ft 474 kts 239°
2026-05-04 17:31 65.91754 -88.73492 34102 ft 472 kts 239°
2026-05-04 17:32 65.83846 -89.08746 34083 ft 473 kts 239°
2026-05-04 17:33 65.77452 -89.36825 34094 ft 474 kts 239°
2026-05-04 17:34 65.71017 -89.64662 34091 ft 472 kts 239°
2026-05-04 17:35 65.62910 -89.99370 34083 ft 472 kts 239°
2026-05-04 17:36 65.59667 -90.13071 34072 ft 471 kts 238°
2026-05-04 17:36 65.56391 -90.26830 34077 ft 473 kts 239°
2026-05-04 17:37 65.53120 -90.40474 34071 ft 473 kts 238°
2026-05-04 17:37 65.49819 -90.54173 34076 ft 472 kts 238°
2026-05-04 17:38 65.46502 -90.67846 34057 ft 472 kts 238°
2026-05-04 17:38 65.43172 -90.81490 34051 ft 473 kts 238°
2026-05-04 17:39 65.38143 -91.01915 34055 ft 473 kts 238°
2026-05-04 17:39 65.34776 -91.15477 34042 ft 475 kts 238°
2026-05-04 17:40 65.31395 -91.29044 34046 ft 474 kts 238°
2026-05-04 17:40 65.28003 -91.42548 34071 ft 474 kts 237°
2026-05-04 17:41 65.24611 -91.55974 34053 ft 476 kts 237°
2026-05-04 17:41 65.21156 -91.69567 34039 ft 475 kts 238°
2026-05-04 17:42 65.17768 -91.82842 34045 ft 472 kts 238°
2026-05-04 17:42 65.14350 -91.96138 34048 ft 470 kts 237°
2026-05-04 17:43 65.10918 -92.09391 34048 ft 471 kts 237°
2026-05-04 17:43 65.07468 -92.22636 34038 ft 472 kts 237°
2026-05-04 17:44 65.03996 -92.35827 34048 ft 472 kts 237°
2026-05-04 17:44 65.00529 -92.48984 34037 ft 469 kts 237°
2026-05-04 17:45 64.97080 -92.62061 34048 ft 468 kts 237°
2026-05-04 17:45 64.93616 -92.75071 34049 ft 469 kts 237°
2026-05-04 17:46 64.90120 -92.88094 34045 ft 470 kts 237°
2026-05-04 17:46 64.86638 -93.01017 34061 ft 470 kts 237°
2026-05-04 17:47 64.83124 -93.13969 34058 ft 471 kts 237°
2026-05-04 17:49 64.82221 -93.17286 34054 ft 471 kts 237°
2026-05-04 17:49 64.78690 -93.30207 34055 ft 468 kts 236°
2026-05-04 17:50 64.75161 -93.43052 34058 ft 469 kts 236°
2026-05-04 17:50 64.71616 -93.55868 34060 ft 469 kts 236°
2026-05-04 17:51 64.68079 -93.68577 34055 ft 468 kts 236°
2026-05-04 17:51 64.64521 -93.81310 34055 ft 468 kts 236°
2026-05-04 17:52 64.60947 -93.94017 34064 ft 468 kts 236°
2026-05-04 17:52 64.57363 -94.06683 34064 ft 466 kts 235°
2026-05-04 17:53 64.53799 -94.19216 34065 ft 464 kts 235°
2026-05-04 17:53 64.50226 -94.31714 34061 ft 464 kts 235°
2026-05-04 17:54 64.46635 -94.44146 34061 ft 465 kts 234°
2026-05-04 17:54 64.43027 -94.56570 34066 ft 464 kts 235°
2026-05-04 17:55 64.39460 -94.68912 34057 ft 464 kts 234°
2026-05-04 17:55 64.35832 -94.81352 34065 ft 463 kts 234°
2026-05-04 17:56 64.32242 -94.93559 34062 ft 463 kts 234°
2026-05-04 17:56 64.28606 -95.05829 34061 ft 462 kts 234°
2026-05-04 17:57 64.24974 -95.18063 34069 ft 464 kts 234°
2026-05-04 17:57 64.21303 -95.30262 34068 ft 464 kts 234°
2026-05-04 17:58 64.17630 -95.42462 34080 ft 464 kts 234°
2026-05-04 17:58 64.13965 -95.54630 34071 ft 464 kts 234°
2026-05-04 17:59 64.10299 -95.66772 34071 ft 463 kts 233°
2026-05-04 18:00 64.04776 -95.84840 34078 ft 463 kts 233°
2026-05-04 18:00 64.01077 -95.96862 34085 ft 463 kts 233°
2026-05-04 18:01 63.97368 -96.08838 34084 ft 462 kts 233°
2026-05-04 18:01 63.93652 -96.20779 34082 ft 462 kts 233°
2026-05-04 18:02 63.88057 -96.38653 34082 ft 464 kts 233°
2026-05-04 18:02 63.84318 -96.50513 34087 ft 465 kts 233°
2026-05-04 18:03 63.80553 -96.62394 34088 ft 464 kts 233°
2026-05-04 18:03 63.76772 -96.74263 34094 ft 464 kts 233°
2026-05-04 18:04 63.72983 -96.86087 34096 ft 464 kts 233°
2026-05-04 18:05 63.67314 -97.03668 34083 ft 465 kts 233°
2026-05-04 18:05 63.63502 -97.15423 34098 ft 464 kts 233°
2026-05-04 18:06 63.57771 -97.32972 34099 ft 463 kts 232°
2026-05-04 18:06 63.53932 -97.44629 34089 ft 465 kts 232°
2026-05-04 18:07 63.50069 -97.56307 34084 ft 467 kts 232°
2026-05-04 18:07 63.46186 -97.67968 34092 ft 466 kts 232°
2026-05-04 18:08 63.42307 -97.79607 34103 ft 467 kts 232°
2026-05-04 18:08 63.38436 -97.91165 34092 ft 468 kts 232°
2026-05-04 18:09 63.30596 -98.14306 34109 ft 466 kts 232°
2026-05-04 18:10 63.26681 -98.25821 34115 ft 467 kts 232°
2026-05-04 18:10 63.22758 -98.37298 34108 ft 467 kts 231°
2026-05-04 18:11 63.18821 -98.48743 34101 ft 467 kts 231°
2026-05-04 18:11 63.14865 -98.60188 34110 ft 468 kts 232°
2026-05-04 18:12 63.10923 -98.71531 34111 ft 468 kts 231°
2026-05-04 18:12 63.06940 -98.82926 34119 ft 469 kts 231°
2026-05-04 18:13 63.02948 -98.94289 34115 ft 468 kts 231°
2026-05-04 18:14 62.96952 -99.11262 34130 ft 468 kts 231°
2026-05-04 18:14 62.92942 -99.22542 34118 ft 469 kts 231°
2026-05-04 18:15 62.84866 -99.45035 34139 ft 468 kts 231°
2026-05-04 18:16 62.80827 -99.56234 34139 ft 469 kts 231°
2026-05-04 18:16 62.76774 -99.67421 34132 ft 469 kts 231°
2026-05-04 18:17 62.70691 -99.84120 34143 ft 468 kts 231°
2026-05-04 18:18 62.64571 -100.00702 34137 ft 468 kts 231°
2026-05-04 18:18 62.60515 -100.11692 34150 ft 469 kts 231°
2026-05-04 18:19 62.54383 -100.28187 34144 ft 468 kts 231°
2026-05-04 18:19 62.50276 -100.39156 34157 ft 470 kts 231°
2026-05-04 18:20 62.46146 -100.50129 34155 ft 471 kts 230°
2026-05-04 18:20 62.42003 -100.61082 34185 ft 469 kts 230°
2026-05-04 18:21 62.37853 -100.71999 34167 ft 471 kts 230°
2026-05-04 18:21 62.33700 -100.82884 34153 ft 470 kts 230°
2026-05-04 18:22 62.29562 -100.93672 34169 ft 470 kts 230°
2026-05-04 18:22 62.25387 -101.04499 34160 ft 472 kts 230°
2026-05-04 18:23 62.21182 -101.15330 34172 ft 471 kts 230°
2026-05-04 18:23 62.16988 -101.26123 34165 ft 473 kts 230°
2026-05-04 18:24 62.12781 -101.36897 34187 ft 470 kts 230°
2026-05-04 18:24 62.08565 -101.47625 34182 ft 472 kts 230°
2026-05-04 18:25 62.04341 -101.58323 34181 ft 471 kts 230°
2026-05-04 18:25 62.00106 -101.69001 34180 ft 472 kts 230°
2026-05-04 18:26 61.95856 -101.79658 34177 ft 473 kts 230°
2026-05-04 18:26 61.91596 -101.90297 34192 ft 472 kts 230°
2026-05-04 18:27 61.87367 -102.00814 34186 ft 473 kts 230°
2026-05-04 18:27 61.83097 -102.11385 34189 ft 471 kts 230°
2026-05-04 18:28 61.78822 -102.21911 34178 ft 472 kts 230°
2026-05-04 18:28 61.74533 -102.32419 34198 ft 471 kts 229°
2026-05-04 18:29 61.70232 -102.42879 34187 ft 472 kts 229°
2026-05-04 18:29 61.65941 -102.53323 34190 ft 472 kts 229°
2026-05-04 18:30 61.59469 -102.68960 34206 ft 472 kts 229°
2026-05-04 18:31 61.55144 -102.79348 34193 ft 473 kts 229°
2026-05-04 18:31 61.50816 -102.89698 34200 ft 472 kts 229°
2026-05-04 18:32 61.46482 -103.00010 34203 ft 472 kts 229°
2026-05-04 18:32 61.42161 -103.10214 34216 ft 472 kts 229°
2026-05-04 18:33 61.37814 -103.20479 34200 ft 472 kts 229°
2026-05-04 18:33 61.33453 -103.30708 34211 ft 471 kts 229°
2026-05-04 18:34 61.29086 -103.40907 34213 ft 472 kts 229°
2026-05-04 18:34 61.24712 -103.51070 34227 ft 472 kts 229°
2026-05-04 18:35 61.20327 -103.61225 34219 ft 473 kts 229°
2026-05-04 18:35 61.15927 -103.71364 34215 ft 473 kts 228°
2026-05-04 18:36 61.11520 -103.81473 34213 ft 473 kts 228°
2026-05-04 18:36 61.07851 -103.89852 34215 ft 473 kts 228°
2026-05-04 18:37 61.03435 -103.99908 34224 ft 471 kts 228°
2026-05-04 18:37 60.99021 -104.09895 34234 ft 471 kts 228°
2026-05-04 18:38 60.94599 -104.19872 34245 ft 471 kts 228°
2026-05-04 18:38 60.90169 -104.29820 34239 ft 471 kts 228°
2026-05-04 18:39 60.85762 -104.39666 34239 ft 471 kts 228°
2026-05-04 18:39 60.81313 -104.49542 34248 ft 471 kts 227°
2026-05-04 18:40 60.76872 -104.59389 34233 ft 469 kts 228°
2026-05-04 18:40 60.72437 -104.69191 34244 ft 469 kts 228°
2026-05-04 18:41 60.67989 -104.78958 34245 ft 469 kts 228°
2026-05-04 18:41 60.63541 -104.88689 34246 ft 469 kts 228°
2026-05-04 18:42 60.59085 -104.98386 34241 ft 469 kts 227°
2026-05-04 18:42 60.54622 -105.08055 34227 ft 468 kts 228°
2026-05-04 18:43 60.50155 -105.17693 34240 ft 467 kts 228°
2026-05-04 18:43 60.45695 -105.27273 34243 ft 468 kts 228°
2026-05-04 18:44 60.41247 -105.36805 34235 ft 469 kts 227°
2026-05-04 18:44 60.36733 -105.46424 34228 ft 469 kts 227°
2026-05-04 18:45 60.32261 -105.55905 34234 ft 469 kts 227°
2026-05-04 18:45 60.27761 -105.65414 34216 ft 468 kts 227°
2026-05-04 18:46 60.23325 -105.74748 34228 ft 468 kts 227°
2026-05-04 18:46 60.18823 -105.84185 34232 ft 468 kts 227°
2026-05-04 18:47 60.14680 -105.92825 34238 ft 468 kts 227°
2026-05-04 18:47 60.10231 -106.02072 34235 ft 467 kts 227°
2026-05-04 18:48 60.05704 -106.11432 34243 ft 468 kts 227°
2026-05-04 18:48 60.01170 -106.20779 34232 ft 468 kts 227°
2026-05-04 18:49 59.96625 -106.30103 34224 ft 469 kts 227°
2026-05-04 18:49 59.92070 -106.39405 34226 ft 469 kts 227°
2026-05-04 18:50 59.87507 -106.48694 34223 ft 468 kts 227°
2026-05-04 18:50 59.82945 -106.57941 34233 ft 468 kts 227°
2026-05-04 18:51 59.80391 -106.63103 34220 ft 468 kts 227°
2026-05-04 18:51 59.80156 -106.63577 34224 ft 468 kts 227°
2026-05-04 18:52 59.75571 -106.72802 34213 ft 469 kts 227°
2026-05-04 18:52 59.71132 -106.81703 34219 ft 469 kts 227°
2026-05-04 18:53 59.66575 -106.90806 34222 ft 470 kts 227°
2026-05-04 18:53 59.61967 -106.99968 34223 ft 471 kts 227°
2026-05-04 18:54 59.57340 -107.09131 34219 ft 471 kts 227°
2026-05-04 18:54 59.52709 -107.18267 34216 ft 470 kts 227°
2026-05-04 18:55 59.48073 -107.27366 34217 ft 470 kts 227°
2026-05-04 18:55 59.41766 -107.39688 34229 ft 470 kts 227°
2026-05-04 18:56 59.40413 -107.42326 34232 ft 470 kts 227°
2026-05-04 18:56 59.35767 -107.51352 34228 ft 470 kts 227°
2026-05-04 18:57 59.31146 -107.60299 34235 ft 470 kts 227°
2026-05-04 18:57 59.26492 -107.69257 34228 ft 470 kts 227°
2026-05-04 18:58 59.21822 -107.78225 34245 ft 471 kts 227°
2026-05-04 18:58 59.17130 -107.87197 34245 ft 472 kts 227°
2026-05-04 18:59 59.13904 -107.93343 34248 ft 472 kts 227°
2026-05-04 18:59 59.13683 -107.93765 34256 ft 472 kts 227°
2026-05-04 19:00 59.08979 -108.02691 34257 ft 472 kts 226°
2026-05-04 19:00 59.04273 -108.11589 34258 ft 472 kts 226°
2026-05-04 19:01 58.99567 -108.20451 34257 ft 471 kts 227°
2026-05-04 19:01 58.94886 -108.29227 34263 ft 471 kts 227°
2026-05-04 19:02 58.90167 -108.38038 34275 ft 471 kts 226°
2026-05-04 19:02 58.85441 -108.46823 34274 ft 471 kts 226°
2026-05-04 19:03 58.80719 -108.55583 34275 ft 471 kts 226°
2026-05-04 19:03 58.75969 -108.64342 34272 ft 472 kts 226°
2026-05-04 19:04 58.71256 -108.73015 34273 ft 472 kts 226°
2026-05-04 19:04 58.66498 -108.81725 34266 ft 472 kts 226°
2026-05-04 19:05 58.61739 -108.90403 34269 ft 472 kts 226°
2026-05-04 19:05 58.56971 -108.99059 34268 ft 472 kts 226°
2026-05-04 19:06 58.52202 -109.07682 34246 ft 472 kts 226°
2026-05-04 19:06 58.47427 -109.16284 34259 ft 472 kts 226°
2026-05-04 19:07 58.42650 -109.24870 34269 ft 472 kts 226°
2026-05-04 19:07 58.37855 -109.33446 34262 ft 473 kts 226°
2026-05-04 19:08 58.33077 -109.41960 34253 ft 473 kts 226°
2026-05-04 19:08 58.28262 -109.50500 34254 ft 473 kts 226°
2026-05-04 19:09 58.23454 -109.59004 34253 ft 472 kts 226°
2026-05-04 19:09 58.18642 -109.67475 34248 ft 472 kts 226°
2026-05-04 19:10 58.13817 -109.75936 34260 ft 472 kts 226°
2026-05-04 19:10 58.08988 -109.84371 34248 ft 472 kts 226°
2026-05-04 19:11 58.04147 -109.92801 34240 ft 473 kts 225°
2026-05-04 19:11 57.99330 -110.01245 34231 ft 470 kts 228°
2026-05-04 19:12 57.92379 -110.14181 34250 ft 470 kts 228°
2026-05-04 19:13 57.87717 -110.22821 34255 ft 470 kts 228°
2026-05-04 19:13 57.83053 -110.31433 34246 ft 470 kts 228°
2026-05-04 19:14 57.78378 -110.40032 34248 ft 470 kts 228°
2026-05-04 19:14 57.73696 -110.48602 34240 ft 470 kts 228°
2026-05-04 19:15 57.69006 -110.57155 34255 ft 471 kts 228°
2026-05-04 19:15 57.64316 -110.65680 34254 ft 471 kts 228°
2026-05-04 19:16 57.59614 -110.74196 34274 ft 471 kts 228°
2026-05-04 19:16 57.54933 -110.82645 34265 ft 473 kts 228°
2026-05-04 19:17 57.50162 -110.91229 34254 ft 476 kts 228°
2026-05-04 19:17 57.45383 -110.99793 34266 ft 477 kts 228°
2026-05-04 19:18 57.40623 -111.08274 34274 ft 477 kts 228°
2026-05-04 19:18 57.35827 -111.16797 34274 ft 477 kts 228°
2026-05-04 19:19 57.31031 -111.25301 34270 ft 477 kts 228°
2026-05-04 19:19 57.26222 -111.33787 34244 ft 479 kts 229°
2026-05-04 19:20 57.21389 -111.42277 34259 ft 480 kts 229°
2026-05-04 19:20 57.16540 -111.50766 34269 ft 480 kts 228°
2026-05-04 19:21 57.11730 -111.59147 34259 ft 479 kts 228°
2026-05-04 19:21 57.06882 -111.67563 34260 ft 479 kts 228°
2026-05-04 19:22 57.02023 -111.75975 34221 ft 480 kts 229°
2026-05-04 19:22 56.97145 -111.84384 34242 ft 481 kts 229°
2026-05-04 19:23 56.92257 -111.92778 34240 ft 482 kts 229°
2026-05-04 19:23 56.87361 -112.01149 34244 ft 482 kts 229°
2026-05-04 19:24 56.82489 -112.09461 34240 ft 482 kts 229°
2026-05-04 19:24 56.77582 -112.17797 34212 ft 482 kts 229°
2026-05-04 19:25 56.72663 -112.26115 34230 ft 483 kts 229°
2026-05-04 19:25 56.68566 -112.33023 34234 ft 482 kts 229°
2026-05-04 19:26 56.63638 -112.41307 34229 ft 482 kts 229°
2026-05-04 19:26 56.58704 -112.49562 34229 ft 482 kts 229°
2026-05-04 19:27 56.53771 -112.57789 34180 ft 482 kts 230°
2026-05-04 19:27 56.48826 -112.65999 34217 ft 482 kts 230°
2026-05-04 19:28 56.43876 -112.74193 34222 ft 482 kts 230°
2026-05-04 19:28 56.38952 -112.82316 34212 ft 482 kts 230°
2026-05-04 19:29 56.33996 -112.90471 34237 ft 482 kts 229°
2026-05-04 19:29 56.29025 -112.98603 34227 ft 482 kts 229°
2026-05-04 19:30 56.24060 -113.06699 34222 ft 482 kts 229°
2026-05-04 19:30 56.19084 -113.14790 34222 ft 482 kts 229°
2026-05-04 19:31 56.14101 -113.22855 34223 ft 482 kts 229°
2026-05-04 19:31 56.09120 -113.30890 34219 ft 482 kts 229°
2026-05-04 19:32 56.04127 -113.38924 34201 ft 484 kts 230°
2026-05-04 19:32 55.99099 -113.46981 34218 ft 485 kts 230°
2026-05-04 19:33 55.94099 -113.54959 34226 ft 485 kts 230°
2026-05-04 19:33 55.89067 -113.62965 34230 ft 483 kts 230°
2026-05-04 19:34 55.84039 -113.70935 34419 ft 484 kts 229°
2026-05-04 19:34 55.81523 -113.74912 34635 ft 484 kts 230°
2026-05-04 19:34 55.79005 -113.78888 34815 ft 486 kts 230°
2026-05-04 19:34 55.76474 -113.82875 35008 ft 487 kts 230°
2026-05-04 19:35 55.73932 -113.86868 35252 ft 487 kts 230°
2026-05-04 19:35 55.71394 -113.90842 35505 ft 487 kts 230°
2026-05-04 19:35 55.68853 -113.94815 35738 ft 487 kts 229°
2026-05-04 19:35 55.66314 -113.98783 35977 ft 487 kts 229°
2026-05-04 19:36 55.63774 -114.02749 36199 ft 487 kts 229°
2026-05-04 19:36 55.58687 -114.10668 36243 ft 487 kts 229°
2026-05-04 19:37 55.53582 -114.18593 36206 ft 490 kts 230°
2026-05-04 19:37 55.48918 -114.25801 36232 ft 491 kts 230°
2026-05-04 19:38 55.43777 -114.33715 36234 ft 491 kts 229°
2026-05-04 19:38 55.38633 -114.41605 36206 ft 490 kts 229°
2026-05-04 19:39 55.33492 -114.49463 36150 ft 490 kts 230°
2026-05-04 19:39 55.28336 -114.57322 36177 ft 491 kts 230°
2026-05-04 19:40 55.23168 -114.65166 36189 ft 492 kts 230°
2026-05-04 19:40 55.17987 -114.73006 36193 ft 492 kts 230°
2026-05-04 19:41 55.12799 -114.80821 36199 ft 492 kts 230°
2026-05-04 19:41 55.07608 -114.88621 36179 ft 491 kts 231°
2026-05-04 19:42 55.02422 -114.96386 36222 ft 491 kts 231°
2026-05-04 19:42 54.96709 -115.03275 36235 ft 509 kts 218°
2026-05-04 19:43 54.90457 -115.09149 36231 ft 511 kts 217°
2026-05-04 19:43 54.84208 -115.15030 36234 ft 511 kts 217°
2026-05-04 19:44 54.77968 -115.20929 36181 ft 510 kts 218°
2026-05-04 19:44 54.71731 -115.26805 36217 ft 510 kts 218°
2026-05-04 19:45 54.65536 -115.32626 36228 ft 510 kts 218°
2026-05-04 19:45 54.59282 -115.38480 36223 ft 510 kts 218°
2026-05-04 19:46 54.53036 -115.44295 36216 ft 510 kts 218°
2026-05-04 19:46 54.46800 -115.50091 36170 ft 511 kts 218°
2026-05-04 19:47 54.40538 -115.55881 36194 ft 511 kts 218°
2026-05-04 19:47 54.34269 -115.61662 36209 ft 511 kts 218°
2026-05-04 19:48 54.28010 -115.67425 36186 ft 511 kts 217°
2026-05-04 19:48 54.21752 -115.73162 36166 ft 510 kts 217°
2026-05-04 19:49 54.15527 -115.78984 36133 ft 505 kts 222°
2026-05-04 19:49 54.12798 -115.82490 36204 ft 491 kts 233°
2026-05-04 19:49 54.10306 -115.86461 36217 ft 489 kts 235°
2026-05-04 19:50 54.05433 -115.94542 36212 ft 490 kts 235°
2026-05-04 19:50 54.00513 -116.02561 36222 ft 490 kts 235°
2026-05-04 19:51 53.95557 -116.10557 36166 ft 491 kts 235°
2026-05-04 19:51 53.90597 -116.18529 36204 ft 492 kts 234°
2026-05-04 19:52 53.85616 -116.26501 36214 ft 493 kts 234°
2026-05-04 19:52 53.80631 -116.34471 36198 ft 493 kts 234°
2026-05-04 19:53 53.75639 -116.42422 36187 ft 493 kts 234°
2026-05-04 19:53 53.70673 -116.50300 36170 ft 493 kts 234°
2026-05-04 19:54 53.65668 -116.58214 36169 ft 493 kts 234°
2026-05-04 19:54 53.60653 -116.66114 36174 ft 493 kts 234°
2026-05-04 19:55 53.55631 -116.74001 36183 ft 494 kts 234°
2026-05-04 19:55 53.50603 -116.81865 36136 ft 494 kts 234°
2026-05-04 19:56 53.45564 -116.89725 36182 ft 494 kts 234°
2026-05-04 19:56 53.40512 -116.97565 36192 ft 495 kts 234°
2026-05-04 19:57 53.35458 -117.05404 36189 ft 495 kts 234°
2026-05-04 19:57 53.30394 -117.13236 36180 ft 495 kts 234°
2026-05-04 19:58 53.25323 -117.21028 36140 ft 495 kts 234°
2026-05-04 19:58 53.20277 -117.28759 36170 ft 495 kts 234°
2026-05-04 19:59 53.15202 -117.36522 36176 ft 495 kts 234°
2026-05-04 19:59 53.10122 -117.44271 36168 ft 496 kts 233°
2026-05-04 20:00 53.05028 -117.51998 36135 ft 495 kts 233°
2026-05-04 20:00 52.99942 -117.59689 36151 ft 493 kts 233°
2026-05-04 20:01 52.94874 -117.67337 36163 ft 493 kts 233°
2026-05-04 20:01 52.89785 -117.74988 36140 ft 494 kts 233°
2026-05-04 20:02 52.84688 -117.82617 36092 ft 493 kts 233°
2026-05-04 20:02 52.79606 -117.90205 36085 ft 492 kts 233°
2026-05-04 20:03 52.74524 -117.97765 36114 ft 491 kts 233°
2026-05-04 20:03 52.69469 -118.05265 36122 ft 492 kts 233°
2026-05-04 20:04 52.64369 -118.12792 36120 ft 494 kts 232°
2026-05-04 20:04 52.61595 -118.16228 36076 ft 507 kts 221°
2026-05-04 20:04 52.58423 -118.18927 36135 ft 518 kts 213°
2026-05-04 20:05 52.51789 -118.23677 36075 ft 519 kts 211°
2026-05-04 20:05 52.45187 -118.28439 36119 ft 518 kts 212°
2026-05-04 20:06 52.38582 -118.33272 36093 ft 520 kts 212°
2026-05-04 20:06 52.31966 -118.38097 36039 ft 521 kts 212°
2026-05-04 20:07 52.25362 -118.42885 36070 ft 518 kts 212°
2026-05-04 20:07 52.19895 -118.46844 36063 ft 517 kts 212°
2026-05-04 20:08 52.12259 -118.52348 36044 ft 515 kts 212°
2026-05-04 20:08 52.05694 -118.57069 36063 ft 517 kts 212°
2026-05-04 20:09 51.99116 -118.61780 36018 ft 515 kts 211°
2026-05-04 20:09 51.92574 -118.66456 36020 ft 515 kts 211°
2026-05-04 20:10 51.86006 -118.71135 35994 ft 516 kts 211°
2026-05-04 20:10 51.79419 -118.75806 35922 ft 517 kts 212°
2026-05-04 20:11 51.72830 -118.80468 35944 ft 516 kts 211°
2026-05-04 20:11 51.66298 -118.85068 36010 ft 511 kts 211°
2026-05-04 20:12 51.59776 -118.89652 35970 ft 511 kts 211°
2026-05-04 20:12 51.53241 -118.94236 35963 ft 513 kts 210°
2026-05-04 20:13 51.47803 -118.98036 35929 ft 513 kts 211°
2026-05-04 20:13 51.41257 -119.02598 35931 ft 513 kts 210°
2026-05-04 20:14 51.34709 -119.07144 35930 ft 512 kts 210°
2026-05-04 20:14 51.28159 -119.11684 35932 ft 513 kts 210°
2026-05-04 20:15 51.21646 -119.16177 35920 ft 513 kts 210°
2026-05-04 20:15 51.15053 -119.20717 35919 ft 513 kts 210°
2026-05-04 20:16 51.08551 -119.25177 35923 ft 512 kts 210°
2026-05-04 20:16 51.02003 -119.29647 35926 ft 512 kts 210°
2026-05-04 20:17 50.95462 -119.34104 35947 ft 512 kts 210°
2026-05-04 20:17 50.88904 -119.38563 35915 ft 513 kts 210°
2026-05-04 20:18 50.82343 -119.43007 35895 ft 513 kts 209°
2026-05-04 20:18 50.75791 -119.47435 35906 ft 511 kts 209°
2026-05-04 20:19 50.69236 -119.51851 35910 ft 512 kts 209°
2026-05-04 20:19 50.62686 -119.56247 35919 ft 512 kts 209°
2026-05-04 20:20 50.56129 -119.60634 35916 ft 511 kts 209°
2026-05-04 20:20 50.49586 -119.65005 35905 ft 510 kts 208°
2026-05-04 20:21 50.43097 -119.69320 35912 ft 510 kts 208°
2026-05-04 20:21 50.33289 -119.75817 35906 ft 510 kts 208°
2026-05-04 20:22 50.26754 -119.80128 35900 ft 509 kts 208°
2026-05-04 20:22 50.20240 -119.84417 35903 ft 508 kts 208°
2026-05-04 20:23 50.13722 -119.88694 35888 ft 508 kts 208°
2026-05-04 20:23 50.07212 -119.92957 35899 ft 507 kts 208°
2026-05-04 20:24 50.00700 -119.97209 35905 ft 507 kts 208°
2026-05-04 20:24 49.94198 -120.01442 35864 ft 506 kts 207°
2026-05-04 20:25 49.87721 -120.05648 35897 ft 504 kts 207°
2026-05-04 20:25 49.81246 -120.09830 35889 ft 502 kts 207°
2026-05-04 20:26 49.74782 -120.13997 35911 ft 504 kts 207°
2026-05-04 20:26 49.68305 -120.18159 35900 ft 504 kts 207°
2026-05-04 20:27 49.61869 -120.22285 35908 ft 503 kts 207°
2026-05-04 20:27 49.55407 -120.26416 35916 ft 502 kts 207°
2026-05-04 20:28 49.48965 -120.30524 35917 ft 501 kts 207°
2026-05-04 20:28 49.42519 -120.34618 35901 ft 501 kts 207°
2026-05-04 20:29 49.36289 -120.39253 35903 ft 493 kts 218°
2026-05-04 20:29 49.30612 -120.45111 35920 ft 491 kts 220°
2026-05-04 20:30 49.24942 -120.50991 35928 ft 495 kts 219°
2026-05-04 20:30 49.19254 -120.56825 35931 ft 495 kts 219°
2026-05-04 20:31 49.13542 -120.62656 35906 ft 494 kts 219°
2026-05-04 20:31 49.07836 -120.68471 35919 ft 494 kts 218°
2026-05-04 20:32 49.02182 -120.74412 35906 ft 493 kts 220°
2026-05-04 20:32 48.96521 -120.80341 35901 ft 494 kts 219°
2026-05-04 20:33 48.90819 -120.86156 35894 ft 493 kts 218°
2026-05-04 20:33 48.85130 -120.91933 35891 ft 492 kts 218°
2026-05-04 20:34 48.79430 -120.97718 35863 ft 494 kts 218°
2026-05-04 20:34 48.73711 -121.03506 35859 ft 494 kts 218°
2026-05-04 20:35 48.68006 -121.09262 35826 ft 493 kts 218°
2026-05-04 20:35 48.62314 -121.14977 35874 ft 495 kts 218°
2026-05-04 20:36 48.56568 -121.20741 35881 ft 497 kts 218°
2026-05-04 20:36 48.50811 -121.26495 35874 ft 495 kts 218°
2026-05-04 20:37 48.45074 -121.32217 35875 ft 494 kts 218°
2026-05-04 20:37 48.39332 -121.37931 35903 ft 494 kts 218°
2026-05-04 20:38 48.33650 -121.43563 35878 ft 485 kts 218°
2026-05-04 20:38 48.27947 -121.49209 35891 ft 493 kts 218°
2026-05-04 20:39 48.22246 -121.54834 35875 ft 493 kts 217°
2026-05-04 20:39 48.16504 -121.60482 35906 ft 493 kts 217°
2026-05-04 20:40 48.10777 -121.66100 35906 ft 491 kts 217°
2026-05-04 20:40 48.05115 -121.71642 35918 ft 488 kts 217°
2026-05-04 20:41 47.99396 -121.77231 35916 ft 492 kts 217°
2026-05-04 20:41 47.93650 -121.82820 35937 ft 493 kts 217°
2026-05-04 20:42 47.87899 -121.88400 35937 ft 493 kts 217°
2026-05-04 20:42 47.82137 -121.93979 35938 ft 493 kts 217°
2026-05-04 20:43 47.76385 -121.99536 35919 ft 492 kts 216°
2026-05-04 20:43 47.70651 -122.05058 35923 ft 490 kts 216°
2026-05-04 20:44 47.64973 -122.10515 35923 ft 489 kts 216°
2026-05-04 20:44 47.59223 -122.16018 36001 ft 486 kts 216°
2026-05-04 20:45 47.56420 -122.18695 36158 ft 486 kts 216°
2026-05-04 20:45 47.53570 -122.21418 36217 ft 490 kts 216°
2026-05-04 20:45 47.47789 -122.26910 35988 ft 495 kts 214°
2026-05-04 20:46 47.44748 -122.29208 35899 ft 498 kts 203°
2026-05-04 20:46 47.41395 -122.30669 35893 ft 500 kts 190°
2026-05-04 20:46 47.34458 -122.31116 35939 ft 499 kts 178°
2026-05-04 20:47 47.27506 -122.30998 35943 ft 499 kts 178°
2026-05-04 20:47 47.20568 -122.30982 35925 ft 498 kts 178°
2026-05-04 20:48 47.13688 -122.30987 35921 ft 497 kts 178°
2026-05-04 20:48 47.06774 -122.30995 35312 ft 493 kts 178°
2026-05-04 20:49 47.03344 -122.30990 34597 ft 492 kts 178°
2026-05-04 20:49 46.99913 -122.30987 33789 ft 492 kts 178°
2026-05-04 20:49 46.96489 -122.30991 32914 ft 493 kts 179°
2026-05-04 20:49 46.93053 -122.30990 32079 ft 494 kts 179°
2026-05-04 20:50 46.89607 -122.30990 31241 ft 495 kts 179°
2026-05-04 20:50 46.86169 -122.30989 30434 ft 494 kts 179°
2026-05-04 20:50 46.82739 -122.30990 29568 ft 493 kts 179°
2026-05-04 20:50 46.79305 -122.30988 28716 ft 491 kts 179°
2026-05-04 20:51 46.75897 -122.30991 27937 ft 487 kts 179°
2026-05-04 20:51 46.72525 -122.30988 27222 ft 481 kts 179°
2026-05-04 20:51 46.69227 -122.30987 26496 ft 478 kts 179°
2026-05-04 20:51 46.65915 -122.30991 25778 ft 474 kts 180°
2026-05-04 20:52 46.62624 -122.30990 25074 ft 471 kts 180°
2026-05-04 20:52 46.59362 -122.30988 24373 ft 468 kts 180°
2026-05-04 20:52 46.57168 -122.30990 23895 ft 466 kts 180°
2026-05-04 20:52 46.52892 -122.30993 22868 ft 460 kts 179°
2026-05-04 20:53 46.49706 -122.30992 22088 ft 453 kts 179°
2026-05-04 20:53 46.46580 -122.30990 21347 ft 447 kts 179°
2026-05-04 20:53 46.43498 -122.30986 20631 ft 440 kts 179°
2026-05-04 20:53 46.40457 -122.30988 19968 ft 433 kts 180°
2026-05-04 20:54 46.37469 -122.30990 19362 ft 426 kts 180°
2026-05-04 20:54 46.34525 -122.30987 18761 ft 419 kts 180°
2026-05-04 20:54 46.31636 -122.30987 18185 ft 413 kts 180°
2026-05-04 20:54 46.28781 -122.30989 17558 ft 406 kts 180°
2026-05-04 20:55 46.25981 -122.31147 16956 ft 400 kts 188°
2026-05-04 20:55 46.23307 -122.32198 16385 ft 397 kts 201°
2026-05-04 20:55 46.20738 -122.33647 15851 ft 396 kts 202°
2026-05-04 20:55 46.18181 -122.35123 15304 ft 396 kts 202°
2026-05-04 20:56 46.15617 -122.36583 14760 ft 395 kts 202°
2026-05-04 20:56 46.13054 -122.38022 14224 ft 395 kts 201°
2026-05-04 20:56 46.11356 -122.38970 13870 ft 395 kts 201°
2026-05-04 20:56 46.07936 -122.40873 13094 ft 390 kts 201°
2026-05-04 20:57 46.05429 -122.42263 12529 ft 383 kts 201°
2026-05-04 20:57 46.02970 -122.43628 11966 ft 376 kts 201°
2026-05-04 20:57 46.00542 -122.44973 11396 ft 370 kts 201°
2026-05-04 20:57 45.98174 -122.46284 11008 ft 359 kts 201°
2026-05-04 20:58 45.95889 -122.47546 10764 ft 345 kts 201°
2026-05-04 20:58 45.93697 -122.48757 10480 ft 329 kts 201°
2026-05-04 20:58 45.91609 -122.49910 10193 ft 314 kts 201°
2026-05-04 20:58 45.89612 -122.51012 9992 ft 303 kts 201°
2026-05-04 20:59 45.87678 -122.52077 9576 ft 300 kts 201°
2026-05-04 20:59 45.85734 -122.53147 9116 ft 298 kts 202°
2026-05-04 20:59 45.84431 -122.53864 8817 ft 297 kts 202°
2026-05-04 20:59 45.81868 -122.55273 8295 ft 298 kts 202°
2026-05-04 21:00 45.80565 -122.55989 8045 ft 296 kts 202°
2026-05-04 21:00 45.78034 -122.57379 7560 ft 292 kts 202°
2026-05-04 21:00 45.76749 -122.58084 7295 ft 294 kts 202°
2026-05-04 21:00 45.74852 -122.59127 7013 ft 288 kts 203°
2026-05-04 21:01 45.72961 -122.59876 6817 ft 280 kts 182°
2026-05-04 21:01 45.70612 -122.58814 6575 ft 265 kts 139°
2026-05-04 21:01 45.69807 -122.57514 6496 ft 254 kts 121°
2026-05-04 21:01 45.68909 -122.55406 6344 ft 243 kts 118°
2026-05-04 21:02 45.68034 -122.53338 6117 ft 243 kts 119°
2026-05-04 21:02 45.67125 -122.51299 5896 ft 242 kts 121°
2026-05-04 21:02 45.66206 -122.49319 5675 ft 242 kts 122°
2026-05-04 21:02 45.65262 -122.47337 5425 ft 240 kts 122°
2026-05-04 21:03 45.64313 -122.45370 5199 ft 239 kts 122°
2026-05-04 21:03 45.63362 -122.43425 4960 ft 240 kts 123°
2026-05-04 21:03 45.62392 -122.41454 4592 ft 245 kts 123°
2026-05-04 21:03 45.61400 -122.39445 4118 ft 251 kts 124°
2026-05-04 21:04 45.60379 -122.37383 3634 ft 257 kts 125°
2026-05-04 21:04 45.59340 -122.35282 3150 ft 262 kts 127°
2026-05-04 21:04 45.58168 -122.33270 2676 ft 264 kts 146°
2026-05-04 21:04 45.56574 -122.32358 2802 ft 234 kts 174°
2026-05-04 21:05 45.55039 -122.32530 2866 ft 214 kts 200°
2026-05-04 21:05 45.53758 -122.33542 2872 ft 212 kts 223°
2026-05-04 21:05 45.52824 -122.35137 2900 ft 213 kts 237°
2026-05-04 21:05 45.52013 -122.36908 2847 ft 211 kts 237°
2026-05-04 21:06 45.51257 -122.38693 2848 ft 210 kts 248°
2026-05-04 21:06 45.51107 -122.40691 2804 ft 209 kts 282°
2026-05-04 21:06 45.51810 -122.42501 2583 ft 211 kts 307°
2026-05-04 21:06 45.52726 -122.44053 2329 ft 197 kts 306°
2026-05-04 21:07 45.53479 -122.45594 2082 ft 180 kts 299°
2026-05-04 21:07 45.54058 -122.47079 1889 ft 165 kts 294°
2026-05-04 21:07 45.54535 -122.48493 1691 ft 145 kts 288°
2026-05-04 21:07 45.54878 -122.49742 1411 ft 132 kts 290°
2026-05-04 21:08 45.55201 -122.50964 1156 ft 132 kts 290°
2026-05-04 21:08 45.55707 -122.52165 1080 ft 156 kts 307°
2026-05-04 21:08 45.56210 -122.53466 862 ft 137 kts 292°
2026-05-04 21:08 45.56620 -122.54738 618 ft 140 kts 298°
2026-05-04 21:09 45.57109 -122.55939 409 ft 138 kts 296°
2026-05-04 21:09 45.57562 -122.57145 261 ft 140 kts 295°
2026-05-04 21:09 45.58046 -122.58362 100 ft 142 kts 297°
2026-05-04 21:09 45.58515 -122.59554 39 ft 131 kts 295°
2026-05-04 21:10 45.58869 -122.60499 32 ft 69 kts 300°
2026-05-04 21:10 45.58998 -122.60814 34 ft 27 kts 299°
2026-05-04 21:10 45.59092 -122.61054 34 ft 29 kts 299°
2026-05-04 21:10 45.59197 -122.61305 32 ft 30 kts 320°
2026-05-04 21:11 45.59351 -122.61225 34 ft 25 kts 117°
2026-05-04 21:11 45.59296 -122.61096 34 ft 0 kts 118°
2026-05-04 21:11 45.59290 -122.61081 34 ft 3 kts 118°
2026-05-04 21:11 45.59275 -122.61041 34 ft 6 kts 118°
2026-05-04 21:12 45.59250 -122.60975 34 ft 9 kts 118°
2026-05-04 21:12 45.59215 -122.60887 34 ft 12 kts 120°
2026-05-04 21:12 45.59170 -122.60776 34 ft 14 kts 120°
2026-05-04 21:12 45.59134 -122.60633 34 ft 17 kts 90°
2026-05-04 21:13 45.59139 -122.60457 34 ft 19 kts 90°
2026-05-04 21:13 45.59140 -122.60259 33 ft 21 kts 91°
2026-05-04 21:13 45.59139 -122.60064 33 ft 15 kts 90°
2026-05-04 21:13 45.59132 -122.59908 34 ft 17 kts 116°
2026-05-04 21:14 45.59084 -122.59791 34 ft 13 kts 118°
2026-05-04 21:14 45.59041 -122.59677 35 ft 12 kts 116°
2026-05-04 21:14 45.59056 -122.59639 35 ft 1 kts
2026-05-04 21:14 45.59071 -122.59635 35 ft 4 kts 11°
2026-05-04 21:15 45.59092 -122.59630 35 ft 1 kts
2026-05-04 21:15 45.59099 -122.59629 35 ft 0 kts